Location: Newark
(45.5167°N, 11.1667°E)
Time: 05:19:23
(UTC+00:00)

Transit 4A - All Passes

Search period start: 14 December 2019 00:00
Search period end: 24 December 2019 00:00
Orbit: 870 x 975 km, 66.8° (Epoch: 13 December)

Date Brightness Start Highest point End Pass type
(mag) Time Alt. Az. Time Alt. Az. Time Alt. Az.
14 Dec - 00:21:52 10° NW 00:27:44 79° WSW 00:33:32 10° SSE night (unlit)
14 Dec - 02:10:46 10° WNW 02:13:04 12° WSW 02:15:22 10° SW night (unlit)
14 Dec - 13:47:14 10° SE 13:50:54 16° ESE 13:54:32 10° ENE daylight
14 Dec - 15:30:16 10° SSW 15:36:29 89° NW 15:42:32 10° NNE daylight
14 Dec - 17:18:55 10° W 17:23:38 23° NW 17:28:18 10° NNE visible
14 Dec - 21:00:16 10° N 21:01:57 11° NNE 21:03:38 10° NE visible
14 Dec - 22:45:08 10° NNW 22:50:21 32° NE 22:55:30 10° ESE night (unlit)
15 Dec - 00:31:18 10° NW 00:36:59 54° WSW 00:42:37 10° SSE night (unlit)
15 Dec - 13:55:07 10° SSE 13:59:57 25° ESE 14:04:42 10° NE daylight
15 Dec - 15:39:43 10° SW 15:45:51 65° NW 15:51:51 10° NNE daylight
15 Dec - 17:29:21 10° WNW 17:33:23 18° NNW 17:37:23 10° N visible
15 Dec - 21:09:06 10° N 21:11:53 13° NNE 21:14:38 10° NE night (unlit)
15 Dec - 22:54:19 10° NNW 22:59:54 42° NE 23:05:24 10° ESE night (unlit)
16 Dec - 00:40:52 10° NW 00:46:10 37° WSW 00:51:26 10° S night (unlit)
16 Dec - 14:03:32 10° S 14:09:04 36° ESE 14:14:31 10° NE daylight
16 Dec - 15:49:23 10° WSW 15:55:18 47° NW 16:01:06 10° NNE daylight
16 Dec - 17:40:00 10° WNW 17:43:13 14° NNW 17:46:24 10° N visible
16 Dec - 21:18:06 10° N 21:21:44 16° NNE 21:25:20 10° ENE night (unlit)
16 Dec - 23:03:34 10° NNW 23:09:23 59° NE 23:15:06 10° SE night (unlit)
17 Dec - 00:50:38 10° NW 00:55:17 25° WSW 00:59:54 10° SSW night (unlit)
17 Dec - 14:12:18 10° S 14:18:15 52° ESE 14:24:05 10° NE daylight
17 Dec - 15:59:16 10° WSW 16:04:50 35° NW 16:10:18 10° NNE visible
17 Dec - 17:50:54 10° NW 17:53:07 12° NNW 17:55:19 10° N visible
17 Dec - 21:27:09 10° NNW 21:31:30 21° NE 21:35:48 10° E night (unlit)
17 Dec - 23:12:52 10° NNW 23:18:46 83° ENE 23:24:34 10° SE night (unlit)
18 Dec - 01:00:47 10° WNW 01:04:19 17° WSW 01:07:51 10° SW night (unlit)
18 Dec - 12:39:48 10° SE 12:42:10 12° ESE 12:44:29 10° ENE daylight
18 Dec - 14:21:22 10° SSW 14:27:31 74° ESE 14:33:32 10° NE daylight
18 Dec - 16:09:22 10° W 16:14:27 27° NW 16:19:27 10° NNE visible
18 Dec - 18:02:28 10° NNW 18:03:05 10° NNW 18:03:41 10° N visible
18 Dec - 19:52:10 10° N 19:52:35 10° NNE 19:52:59 10° NNE visible
18 Dec - 21:36:17 10° NNW 21:41:12 27° NE 21:46:03 10° E night (unlit)
18 Dec - 23:22:15 10° NW 23:28:05 69° WSW 23:33:50 10° SSE night (unlit)
19 Dec - 01:12:26 10° W 01:13:17 10° W 01:14:08 10° WSW night (unlit)
19 Dec - 12:47:00 10° SSE 12:51:10 19° ESE 12:55:15 10° ENE daylight
19 Dec - 14:30:41 10° SW 14:36:51 80° NW 14:42:54 10° NNE daylight
19 Dec - 16:19:40 10° W 16:24:08 21° NW 16:28:33 10° NNE visible
19 Dec - 20:00:26 10° N 20:02:32 12° NNE 20:04:38 10° NE visible
19 Dec - 21:45:27 10° NNW 21:50:48 35° NE 21:56:05 10° ESE night (unlit)
19 Dec - 23:31:44 10° NW 23:37:18 47° WSW 23:42:49 10° S night (unlit)
20 Dec - 12:55:07 10° SSE 13:00:14 28° ESE 13:05:16 10° NE daylight
20 Dec - 14:40:12 10° SW 14:46:15 57° NW 14:52:11 10° NNE daylight
20 Dec - 16:30:11 10° WNW 16:33:55 16° NNW 16:37:37 10° N visible
20 Dec - 20:09:20 10° N 20:12:26 14° NNE 20:15:31 10° ENE visible
20 Dec - 21:54:39 10° NNW 22:00:19 48° NE 22:05:55 10° SE night (unlit)
20 Dec - 23:41:22 10° NW 23:46:27 32° WSW 23:51:31 10° S night (unlit)
21 Dec - 13:03:41 10° S 13:09:23 41° ESE 13:14:58 10° NE daylight
21 Dec - 14:49:57 10° WSW 14:55:44 42° NW 15:01:24 10° NNE daylight
21 Dec - 16:40:56 10° NW 16:43:47 13° NNW 16:46:36 10° N visible
21 Dec - 20:18:21 10° N 20:22:16 18° NNE 20:26:07 10° ENE visible
21 Dec - 22:03:55 10° NNW 22:09:46 67° NE 22:15:32 10° SE night (unlit)
21 Dec - 23:51:15 10° WNW 23:55:33 22° WSW 23:59:50 10° SSW night (unlit)
22 Dec - 13:12:33 10° SSW 13:18:36 59° ESE 13:24:30 10° NE daylight
22 Dec - 14:59:55 10° WSW 15:05:18 31° NW 15:10:35 10° NNE daylight
22 Dec - 16:51:59 10° NW 16:53:42 11° NNW 16:55:25 10° N visible
22 Dec - 20:27:27 10° NNW 20:32:00 23° NE 20:36:30 10° E visible
22 Dec - 22:13:15 10° NNW 22:19:07 87° WSW 22:24:56 10° SSE night (unlit)
23 Dec - 00:01:38 10° WNW 00:04:34 14° WSW 00:07:29 10° SW night (unlit)
23 Dec - 11:39:14 10° SE 11:42:23 15° ESE 11:45:32 10° ENE daylight
23 Dec - 13:21:43 10° SSW 13:27:53 83° ESE 13:33:55 10° NE daylight
23 Dec - 15:10:05 10° W 15:14:57 24° NW 15:19:43 10° NNE daylight
23 Dec - 18:51:57 10° N 18:53:10 11° NNE 18:54:24 10° NNE visible
23 Dec - 20:36:35 10° NNW 20:41:40 29° NE 20:46:41 10° ESE visible
23 Dec - 22:22:39 10° NW 22:28:24 61° WSW 22:34:06 10° SSE night (unlit)
